Location: Penton Mewsey
(51.2167°N, 1.5167°W)
Time: 22:24:55
(UTC+00:00)

Meteor 2-3 Rocket - Pass Details

Date: 30 March 2020
Orbit: 842 x 885 km, 81.2° (Epoch: 27 May)

Event Time Altitude Azimuth Distance (km) Brightness Sun altitude
Rises 23:07:26 0° 347° (NNW) 3,499 8.0 -32.9°
Reaches altitude 10° 23:09:55 10° 349° (N) 2,553 7.0 -33.1°
Enters shadow 23:14:16 52° 2° (N) 1,087 4.4 -33.3°
